Zurück zum Katalog

STARLINK-11234

AktivKommunikationVLEO
NORAD 60400·PAYLOAD·🇺🇸 United States

Gestartet Aug 10, 2024 von Cape Canaveral Space Force Station

Loading…

Nächste Überflüge (nächste 24 Stunden)

TLE

AktuellSource: CelesTrak SupGP

Epoche: Sep 15, 2026, 03:44 UTC

1 60400C 24141C   26258.15604167 -.00088681  00000+0 -73021-3 0  2581
2 60400  53.1572 232.0492 0001182  90.3510 269.5906 15.69763030    15

Verfolge STARLINK-11234 in Echtzeit mit AllMySat

Download on the App Store